GW5748 Weather Reports


time (UTC)temp
C
wind
direction
speed
KPH
gust
KPH
rain 1hr
cm
rain 24hr
cm
rain mn
cm
humidity
%
barometer
mb
20260508002113 11 193 0.0 0.0 0.00 0.03 0.03 86 1010.6
20260508001608 11 193 4.8 4.8 0.00 0.03 0.03 85 1010.3
20260508001104 11 194 0.0 1.6 0.00 0.03 0.03 85 1010.3
20260508000600 12 194 1.6 1.6 0.00 0.03 0.03 84 1010.2
20260508000058 12 194 3.2 3.2 0.00 0.03 0.03 84 1010.1
20260507235554 12 180 0.0 0.0 0.00 0.03 0.03 83 1010.0
20260507235052 12 185 3.2 3.2 0.00 0.03 0.03 83 1010.0
20260507234548 12 166 4.8 6.4 0.00 0.03 0.03 83 1009.8
20260507234045 12 180 1.6 3.2 0.00 0.03 0.03 82 1009.7
20260507233541 13 186 4.8 4.8 0.00 0.03 0.03 81 1009.8
20260507233041 13 186 4.8 6.4 0.00 0.03 0.03 79 1009.8
20260507232536 13 183 4.8 6.4 0.00 0.03 0.03 78 1009.5
20260507232034 13 177 1.6 3.2 0.00 0.03 0.03 79 1009.5
20260507231530 13 177 4.8 4.8 0.00 0.03 0.03 78 1009.5
20260507231027 13 190 3.2 3.2 0.00 0.03 0.03 77 1009.4
20260507230524 13 176 3.2 4.8 0.00 0.03 0.03 78 1009.4
20260507230021 13 189 6.4 9.7 0.00 0.03 0.03 77 1009.3
20260507225515 14 174 8.0 9.7 0.00 0.03 0.03 76 1009.2
20260507225012 14 177 3.2 3.2 0.00 0.03 0.03 77 1009.2
20260507224508 15 185 4.8 4.8 0.00 0.03 0.03 76 1009.2
20260507224004 15 164 3.2 4.8 0.00 0.03 0.03 75 1009.2
20260507223500 15 181 6.4 9.7 0.00 0.03 0.03 73 1009.0
20260507222958 15 192 9.7 11.3 0.00 0.03 0.03 72 1009.0
20260507222455 16 176 9.7 11.3 0.00 0.03 0.03 70 1009.0
20260507221951 16 171 0.0 0.0 0.00 0.03 0.03 72 1008.9
20260507221448 16 146 1.6 6.4 0.00 0.03 0.03 70 1008.9
20260507220944 17 195 6.4 11.3 0.00 0.03 0.03 69 1008.8
20260507220442 17 167 4.8 4.8 0.00 0.03 0.03 71 1008.6
20260507215938 16 176 0.0 1.6 0.00 0.03 0.03 69 1008.6
20260507215435 16 181 4.8 6.4 0.00 0.03 0.03 71 1008.7
20260507214932 16 158 1.6 1.6 0.00 0.03 0.03 72 1008.6
20260507214430 16 181 6.4 11.3 0.00 0.03 0.03 70 1008.5
20260507213925 16 198 8.0 9.7 0.00 0.03 0.03 70 1008.5
20260507213422 16 197 6.4 9.7 0.00 0.03 0.03 71 1008.6
20260507212919 17 188 9.7 14.5 0.00 0.03 0.03 69 1008.7
20260507212415 17 199 4.8 11.3 0.00 0.03 0.03 67 1008.7
20260507211912 17 170 1.6 1.6 0.00 0.03 0.03 73 1008.6
20260507211408 17 149 6.4 11.3 0.00 0.03 0.03 70 1008.5
20260507210905 16 140 3.2 4.8 0.00 0.03 0.03 73 1008.4
20260507210402 16 177 8.0 11.3 0.00 0.03 0.03 71 1008.4
20260507205859 16 196 8.0 9.7 0.00 0.03 0.03 71 1008.6
20260507205356 15 221 9.7 12.9 0.00 0.03 0.03 72 1008.5
20260507204852 15 182 12.9 14.5 0.00 0.03 0.03 71 1008.5
20260507204349 15 191 9.7 11.3 0.00 0.03 0.03 73 1008.7
20260507203847 16 161 3.2 4.8 0.00 0.03 0.03 71 1008.7
20260507203344 16 157 6.4 6.4 0.00 0.03 0.03 71 1008.7
20260507202840 16 167 4.8 4.8 0.00 0.03 0.03 72 1008.6
20260507202337 16 202 12.9 12.9 0.00 0.03 0.03 71 1008.7
20260507201832 16 205 8.0 11.3 0.00 0.03 0.03 69 1008.9
20260507201328 16 210 9.7 9.7 0.00 0.03 0.03 72 1008.8
20260507200825 16 200 9.7 11.3 0.00 0.03 0.03 69 1009.0
20260507200321 16 210 11.3 14.5 0.00 0.03 0.03 70 1008.9
20260507195817 16 184 11.3 16.1 0.00 0.03 0.03 72 1009.0
20260507195315 16 182 12.9 14.5 0.00 0.03 0.03 72 1009.1
20260507194812 15 166 9.7 11.3 0.00 0.03 0.03 72 1009.2
20260507194308 16 188 6.4 6.4 0.00 0.03 0.03 69 1009.1
20260507193804 16 187 3.2 6.4 0.00 0.03 0.03 68 1009.2
20260507193302 17 191 8.0 9.7 0.00 0.03 0.03 71 1009.4
20260507192757 16 165 3.2 4.8 0.00 0.03 0.03 74 1009.4
20260507192254 16 199 9.7 12.9 0.00 0.03 0.03 68 1009.6
20260507191750 15 165 3.2 3.2 0.00 0.03 0.03 74 1009.7
20260507191247 15 159 6.4 9.7 0.00 0.03 0.03 72 1009.7
20260507190744 15 184 11.3 12.9 0.00 0.03 0.03 70 1009.6
20260507190243 16 168 3.2 3.2 0.00 0.03 0.03 71 1009.7
20260507185741 16 165 9.7 12.9 0.00 0.03 0.03 70 1009.7
20260507185237 16 187 3.2 9.7 0.00 0.03 0.03 71 1009.6
20260507184735 15 103 1.6 3.2 0.00 0.03 0.03 74 1009.9
20260507184233 15 185 8.0 12.9 0.00 0.03 0.03 77 1010.1
20260507183729 16 194 9.7 11.3 0.00 0.03 0.03 76 1009.7
20260507183226 15 165 1.6 1.6 0.00 0.03 0.03 78 1010.0
20260507182723 13 160 4.8 4.8 0.00 0.03 0.03 76 1010.2
20260507182218 14 188 3.2 4.8 0.00 0.03 0.03 74 1010.1
20260507181715 14 188 6.4 6.4 0.00 0.03 0.03 77 1010.2
20260507181212 14 167 6.4 11.3 0.00 0.03 0.03 77 1010.1
20260507180709 14 60 6.4 6.4 0.00 0.03 0.03 75 1010.3
20260507180206 13 163 3.2 3.2 0.00 0.03 0.03 77 1010.3
20260507175701 14 180 11.3 14.5 0.00 0.03 0.03 74 1010.4
20260507175158 15 198 1.6 1.6 0.00 0.03 0.03 71 1010.4
20260507174655 13 157 3.2 4.8 0.00 0.03 0.03 80 1010.4
20260507174154 13 73 4.8 4.8 0.00 0.03 0.03 74 1010.3
20260507173650 13 194 6.4 6.4 0.00 0.03 0.03 78 1010.5
20260507173147 13 186 4.8 4.8 0.00 0.03 0.03 80 1010.7
20260507172644 13 115 0.0 1.6 0.00 0.03 0.03 79 1010.7
20260507172141 13 120 1.6 1.6 0.00 0.03 0.03 77 1010.6
20260507171641 13 137 0.0 1.6 0.00 0.03 0.03 77 1010.7
20260507171138 13 166 0.0 1.6 0.00 0.03 0.03 78 1011.4
20260507170636 12 113 0.0 1.6 0.00 0.03 0.03 78 1011.0
20260507170133 12 152 1.6 1.6 0.00 0.03 0.03 79 1011.2
20260507165628 12 82 1.6 3.2 0.00 0.03 0.03 77 1011.3
20260507165125 12 102 1.6 3.2 0.00 0.03 0.03 77 1011.3
20260507164620 12 137 0.0 1.6 0.00 0.03 0.03 80 1011.2
20260507164118 12 127 1.6 1.6 0.00 0.03 0.03 82 1011.5
20260507163615 12 139 0.0 0.0 0.00 0.03 0.03 82 1011.6
20260507163113 12 131 0.0 1.6 0.00 0.03 0.03 81 1011.5
20260507162608 12 155 1.6 1.6 0.00 0.03 0.03 81 1011.8
20260507162105 12 128 0.0 0.0 0.00 0.03 0.03 80 1011.7
20260507161601 12 121 0.0 1.6 0.00 0.03 0.03 80 1011.6
20260507161058 12 101 1.6 3.2 0.00 0.03 0.03 80 1011.7
20260507160554 12 84 3.2 3.2 0.00 0.03 0.03 80 1012.0
20260507160050 12 83 3.2 3.2 0.00 0.03 0.03 82 1011.8
20260507155546 11 101 4.8 4.8 0.00 0.03 0.03 81 1011.8
20260507155043 11 102 1.6 3.2 0.00 0.03 0.03 85 1011.9
20260507154540 11 105 0.0 3.2 0.00 0.03 0.03 85 1012.0
20260507154037 11 114 0.0 1.6 0.00 0.03 0.03 84 1012.1
20260507153534 11 76 3.2 4.8 0.00 0.03 0.03 85 1012.4
20260507153030 11 80 4.8 4.8 0.00 0.03 0.03 85 1012.2
20260507152526 11 93 1.6 3.2 0.00 0.03 0.03 85 1012.2
20260507152022 11 34 6.4 9.7 0.00 0.03 0.03 84 1012.1
20260507151518 11 44 4.8 6.4 0.00 0.03 0.03 83 1012.3
20260507151016 11 80 3.2 4.8 0.00 0.03 0.03 83 1012.2
20260507150513 11 76 6.4 6.4 0.00 0.03 0.03 81 1012.4
20260507150009 11 45 4.8 4.8 0.00 0.03 0.03 80 1012.0
20260507145504 11 32 8.0 11.3 0.00 0.03 0.03 81 1012.1
20260507145002 11 78 3.2 3.2 0.00 0.03 0.03 81 1012.1
20260507144459 11 27 6.4 9.7 0.00 0.03 0.03 80 1012.0
20260507143955 11 38 4.8 4.8 0.00 0.03 0.03 81 1012.1
20260507143453 11 53 4.8 6.4 0.00 0.03 0.03 80 1012.1
20260507142949 11 34 6.4 6.4 0.00 0.03 0.03 80 1012.3
20260507142445 11 42 4.8 6.4 0.00 0.03 0.03 80 1012.4
20260507141943 11 50 6.4 6.4 0.00 0.03 0.03 79 1012.6
20260507141438 11 41 6.4 6.4 0.00 0.03 0.03 79 1012.7
20260507140935 11 55 6.4 6.4 0.00 0.03 0.03 80 1012.6
20260507140432 11 71 4.8 9.7 0.00 0.03 0.03 80 1012.6
20260507135930 11 23 3.2 6.4 0.00 0.03 0.03 81 1012.6
20260507135426 11 36 4.8 4.8 0.00 0.03 0.03 80 1012.7
20260507134924 11 38 6.4 9.7 0.00 0.03 0.03 79 1012.7
20260507134420 11 20 11.3 12.9 0.00 0.03 0.03 78 1012.7
20260507133916 11 66 4.8 4.8 0.00 0.03 0.03 79 1012.7
20260507133412 11 2 6.4 9.7 0.00 0.03 0.03 79 1012.6
20260507132911 11 51 3.2 3.2 0.00 0.03 0.03 81 1012.7
20260507132407 11 30 6.4 6.4 0.00 0.03 0.03 82 1012.7
20260507131905 11 32 3.2 4.8 0.00 0.03 0.03 83 1012.7
20260507131401 11 93 1.6 1.6 0.00 0.03 0.03 82 1012.7
20260507130858 11 48 4.8 4.8 0.00 0.03 0.03 81 1012.6
20260507130354 11 45 4.8 4.8 0.00 0.03 0.03 81 1012.5
20260507125853 11 64 3.2 4.8 0.00 0.03 0.03 82 1012.6
20260507125350 11 65 6.4 6.4 0.00 0.03 0.03 81 1012.6
20260507124848 11 55 3.2 3.2 0.00 0.03 0.03 81 1012.8
20260507124344 11 52 8.0 9.7 0.00 0.03 0.03 82 1012.5
20260507123843 11 65 3.2 3.2 0.00 0.03 0.03 83 1012.6
20260507123339 11 34 4.8 6.4 0.00 0.03 0.03 83 1012.7
20260507122836 11 39 4.8 6.4 0.00 0.03 0.03 82 1012.5
20260507122331 11 83 3.2 3.2 0.00 0.03 0.03 83 1012.7
20260507121828 11 85 1.6 1.6 0.00 0.03 0.03 83 1012.5
20260507121323 11 44 3.2 4.8 0.00 0.03 0.03 83 1012.6
20260507120820 11 67 3.2 3.2 0.00 0.03 0.03 84 1012.5
20260507120316 11 43 4.8 6.4 0.00 0.03 0.03 84 1012.3
20260507115813 11 81 3.2 3.2 0.00 0.03 0.03 85 1012.4
20260507115308 11 60 3.2 3.2 0.00 0.03 0.03 84 1012.3
20260507114804 11 58 3.2 3.2 0.00 0.03 0.03 84 1012.6
20260507114302 11 47 3.2 4.8 0.00 0.03 0.03 85 1012.2
20260507113759 11 8 4.8 4.8 0.00 0.03 0.03 86 1012.2
20260507113256 11 104 1.6 1.6 0.00 0.03 0.03 86 1012.3
20260507112754 11 97 1.6 3.2 0.00 0.03 0.03 87 1012.3
20260507112250 11 33 3.2 4.8 0.00 0.03 0.03 88 1012.1
20260507111748 11 94 1.6 3.2 0.00 0.03 0.03 88 1012.2
20260507111244 11 33 6.4 6.4 0.00 0.03 0.03 89 1012.2
20260507110741 11 78 3.2 4.8 0.00 0.03 0.03 89 1012.0
20260507110237 11 14 4.8 4.8 0.00 0.03 0.03 90 1011.9
20260507105734 11 46 6.4 6.4 0.00 0.03 0.03 90 1011.7
20260507105230 11 100 3.2 3.2 0.00 0.03 0.03 91 1012.0
20260507104727 11 62 6.4 6.4 0.00 0.03 0.03 91 1011.6
20260507104224 11 54 3.2 3.2 0.00 0.03 0.03 91 1011.7
20260507103720 11 65 3.2 4.8 0.00 0.03 0.03 92 1011.9
20260507103216 11 22 6.4 6.4 0.00 0.03 0.03 92 1011.7
20260507102713 11 84 3.2 3.2 0.00 0.03 0.03 92 1011.4
20260507102210 11 59 3.2 4.8 0.00 0.03 0.03 92 1011.4
20260507101706 11 86 3.2 4.8 0.00 0.03 0.03 92 1011.7
20260507101201 11 42 4.8 6.4 0.00 0.03 0.03 92 1011.6
20260507100659 11 52 8.0 11.3 0.00 0.03 0.03 92 1011.7
20260507100157 11 49 6.4 6.4 0.00 0.03 0.03 92 1011.8
20260507095655 11 36 4.8 4.8 0.00 0.03 0.03 92 1011.5
20260507095151 11 62 3.2 4.8 0.00 0.03 0.03 92 1011.5
20260507094647 11 59 4.8 4.8 0.00 0.03 0.03 92 1011.7
20260507094144 11 67 8.0 11.3 0.00 0.03 0.03 92 1011.5
20260507093642 11 39 6.4 6.4 0.00 0.03 0.03 92 1011.5
20260507093141 11 45 3.2 4.8 0.00 0.03 0.03 92 1011.5
20260507092637 11 24 6.4 6.4 0.00 0.03 0.03 92 1011.5
20260507092133 11 61 3.2 3.2 0.00 0.03 0.03 91 1011.2
20260507091630 11 33 6.4 6.4 0.00 0.03 0.03 90 1011.3
20260507091126 11 110 1.6 1.6 0.00 0.03 0.03 89 1011.7
20260507090622 11 42 6.4 6.4 0.00 0.03 0.03 88 1011.4
20260507090119 11 45 6.4 6.4 0.00 0.03 0.03 88 1011.4
20260507085616 11 35 9.7 11.3 0.00 0.03 0.03 88 1011.3
20260507085112 11 54 4.8 9.7 0.00 0.03 0.03 88 1011.4
20260507084609 11 349 9.7 12.9 0.00 0.03 0.03 88 1011.4
20260507084106 11 34 9.7 11.3 0.00 0.03 0.03 88 1011.3
20260507083603 11 48 9.7 12.9 0.00 0.03 0.03 89 1011.1
20260507083100 12 41 8.0 9.7 0.00 0.03 0.03 90 1011.3
20260507082555 12 100 4.8 6.4 0.00 0.03 0.03 91 1011.0
20260507082052 12 20 8.0 12.9 0.00 0.03 0.03 92 1011.2
20260507081548 12 24 6.4 6.4 0.00 0.03 0.03 93 1011.2
20260507081046 12 45 9.7 14.5 0.00 0.03 0.03 93 1011.1
20260507080541 12 57 6.4 9.7 0.00 0.03 0.03 93 1011.1
20260507080038 12 43 14.5 16.1 0.00 0.03 0.03 93 1011.2
20260507075533 12 25 8.0 9.7 0.00 0.03 0.03 94 1011.0
20260507075030 12 46 8.0 9.7 0.00 0.03 0.03 94 1011.3
20260507074526 12 67 3.2 3.2 0.00 0.03 0.03 94 1011.2
20260507074025 12 84 1.6 3.2 0.00 0.03 0.03 94 1011.4
20260507073521 12 91 3.2 4.8 0.00 0.03 0.03 94 1011.2
20260507073018 12 118 0.0 1.6 0.00 0.03 0.03 94 1011.2
20260507072515 13 68 3.2 4.8 0.00 0.03 0.03 94 1010.7
20260507072012 13 63 3.2 4.8 0.00 0.03 0.03 94 1011.0
20260507071509 13 43 4.8 4.8 0.00 0.03 0.03 94 1010.7
20260507071006 13 28 4.8 4.8 0.00 0.03 0.03 94 1010.6
20260507070503 13 38 6.4 6.4 0.00 0.03 0.03 93 1010.4
20260507070000 13 56 6.4 6.4 0.00 0.03 0.03 93 1010.5
20260507065456 13 61 6.4 6.4 0.00 0.03 0.03 92 1010.9
20260507064954 13 59 8.0 11.3 0.00 0.03 0.03 92 1010.5
20260507064452 13 38 6.4 11.3 0.00 0.03 0.03 91 1010.5
20260507063949 13 29 9.7 14.5 0.00 0.03 0.03 91 1010.5
20260507063446 13 51 6.4 6.4 0.00 0.03 0.03 91 1010.3
20260507062943 13 24 14.5 16.1 0.00 0.03 0.03 92 1010.6
20260507062441 14 44 12.9 14.5 0.00 0.03 0.03 93 1010.9
20260507061938 15 22 6.4 9.7 0.00 0.03 0.03 95 1010.9
20260507061436 15 65 3.2 3.2 0.00 0.03 0.03 95 1010.9
20260507060934 15 45 4.8 9.7 0.00 0.03 0.03 96 1010.4
20260507060430 15 56 4.8 4.8 0.00 0.03 0.03 96 1010.5
20260507055927 15 84 3.2 4.8 0.00 0.03 0.03 96 1010.6
20260507055422 15 103 1.6 3.2 0.00 0.03 0.03 96 1010.7
20260507054920 15 126 0.0 1.6 0.00 0.03 0.03 96 1010.9
20260507054415 15 67 4.8 4.8 0.00 0.03 0.03 96 1010.9
20260507053913 15 73 3.2 3.2 0.00 0.03 0.03 96 1011.0
20260507053410 15 102 3.2 3.2 0.00 0.03 0.03 96 1010.7
20260507052909 15 105 3.2 3.2 0.00 0.03 0.03 96 1011.1
20260507052406 15 126 0.0 0.0 0.00 0.03 0.03 95 1011.1
20260507051903 15 126 0.0 0.0 0.00 0.03 0.03 95 1010.7
20260507051401 15 123 0.0 0.0 0.00 0.03 0.03 95 1010.3
20260507050857 15 141 1.6 1.6 0.00 0.03 0.03 95 1010.5
20260507050354 16 147 1.6 1.6 0.00 0.03 0.03 95 1010.5
20260507045851 16 132 0.0 0.0 0.00 0.03 0.03 95 1010.2
20260507045347 16 131 1.6 1.6 0.00 0.03 0.03 95 1010.1
20260507044845 16 350 3.2 4.8 0.00 0.03 0.03 94 1010.0
20260507044341 16 121 1.6 3.2 0.00 0.03 0.03 94 1009.5
20260507043837 16 92 3.2 4.8 0.00 0.03 0.03 94 1009.0
20260507043334 16 96 3.2 3.2 0.13 0.03 0.03 93 1009.2
20260507042830 16 99 3.2 4.8 0.13 0.03 0.03 93 1009.7
20260507042326 16 126 0.0 0.0 0.00 0.00 0.00 93 1010.2
20260507041823 16 126 0.0 0.0 0.00 0.00 0.00 92 1010.5
20260507041319 16 125 0.0 0.0 0.00 0.00 0.00 92 1010.3
20260507040816 16 155 0.0 1.6 0.00 0.00 0.00 92 1010.4
20260507040312 16 190 0.0 0.0 0.00 0.00 0.00 91 1010.5
20260507035808 16 219 3.2 4.8 0.00 0.18 0.18 91 1010.4
20260507035306 17 107 3.2 3.2 0.61 0.18 0.18 89 1010.3
20260507034802 17 193 0.0 1.6 0.61 0.18 0.18 88 1010.9
20260507034258 17 193 0.0 0.0 0.00 0.08 0.08 87 1011.0
20260507033757 17 193 0.0 0.0 0.00 0.08 0.08 86 1010.6
20260507033254 17 192 1.6 1.6 0.00 0.08 0.08 86 1010.5
20260507032751 17 203 3.2 3.2 0.00 0.08 0.08 84 1010.9
20260507032247 17 177 3.2 3.2 0.00 0.08 0.08 84 1010.3
20260507031743 17 193 1.6 1.6 0.00 0.08 0.08 83 1010.6
20260507031241 17 202 3.2 3.2 0.00 0.08 0.08 83 1010.5
20260507030737 18 212 6.4 6.4 0.00 0.08 0.08 84 1010.6
20260507030235 18 204 3.2 3.2 0.00 0.08 0.08 84 1010.4
20260507025732 18 195 1.6 3.2 0.00 0.08 0.08 84 1010.4
20260507025229 18 202 3.2 3.2 0.00 0.08 0.08 84 1010.1
20260507024727 18 217 3.2 4.8 0.00 0.08 0.08 84 1010.0
20260507024224 18 206 3.2 3.2 0.00 0.08 0.08 87 1010.3
20260507023720 18 189 3.2 3.2 0.00 0.08 0.08 87 1010.3
20260507023217 18 214 0.0 0.0 0.00 0.08 0.08 86 1010.1
20260507022714 18 191 0.0 0.0 0.18 0.08 0.08 86 1010.1
20260507022210 18 193 3.2 3.2 0.30 0.08 0.08 84 1009.9
20260507021706 19 213 3.2 4.8 0.13 0.05 0.05 81 1010.0
20260507021201 20 172 1.6 1.6 0.00 0.03 0.03 78 1009.9
20260507020701 20 190 0.0 0.0 0.00 0.03 0.03 77 1009.8
20260507020156 20 190 0.0 0.0 0.00 0.03 0.03 77 1009.8
20260507015654 20 190 0.0 0.0 0.00 0.03 0.03 76 1009.6
20260507015151 20 190 0.0 1.6 0.00 0.03 0.03 76 1009.4
20260507014648 20 188 1.6 1.6 0.00 0.03 0.03 76 1009.4
20260507014144 20 187 0.0 0.0 0.00 0.03 0.03 77 1009.4
20260507013641 20 186 1.6 1.6 0.00 0.03 0.03 76 1009.4
20260507013138 20 193 3.2 3.2 0.00 0.03 0.03 76 1009.0
20260507012635 20 193 1.6 1.6 0.00 0.03 0.03 75 1009.2
20260507012130 20 194 0.0 0.0 0.00 0.03 0.03 73 1009.4
20260507011629 20 194 0.0 0.0 0.00 0.03 0.03 73 1009.3
20260507011125 20 194 1.6 1.6 0.00 0.03 0.03 72 1009.4
20260507010620 20 191 1.6 1.6 0.00 0.03 0.03 72 1009.5
20260507010116 20 205 3.2 3.2 0.00 0.03 0.03 72 1009.7
20260507005614 20 205 4.8 4.8 0.00 0.03 0.03 72 1009.7
20260507005109 21 193 3.2 3.2 0.00 0.03 0.03 71 1009.7
20260507004607 21 189 3.2 4.8 0.00 0.03 0.03 71 1009.7
20260507004104 21 219 6.4 6.4 0.00 0.03 0.03 71 1009.7
20260507003600 21 195 4.8 4.8 0.00 0.03 0.03 71 1009.6
20260507003055 21 198 4.8 6.4 0.00 0.03 0.03 71 1009.6
20260507002552 21 194 4.8 4.8 0.00 0.03 0.03 70 1009.5